Regional Weather Roundup
Issued by NWS Midland/Odessa, TX

Skip options and go directly to product.
Home | Oldest Version | Previous Version | Current Version | All | Text Only | Save Text | Print | Product List | Glossary On

Skip product version selection by date and time.   
825
ASUS44 KMAF 251910
RWRMAF
MIDLAND AREA WEATHER ROUNDUP
NATIONAL WEATHER SERVICE MIDLAND TX
200 PM CDT SAT JUN 25 2016

...IN SOUTHWEST TEXAS AND SOUTHEAST NEW MEXICO...

CITY           SKY/WX    TMP DP  RH WIND       PRES   REMARKS
ALPINE         MOSUNNY   89  54  30 SE9       30.12F
ANDREWS        FAIR      90  59  34 SE13G18   30.03F
ARTESIA        SUNNY     91  61  35 E12G21    30.00F
BIG SPRING     MOSUNNY   87  62  43 SE20G25   30.05S
CARLSBAD       SUNNY     93  57  29 SE13G20   29.98F
DRYDEN           N/A     93  65  39 E15G24    29.96F
FORT STOCKTON  MOSUNNY   92  63  38 S13G24    29.99F
GUAD PASS      SUNNY     87  53  31 E18G25      N/A
HOBBS          SUNNY     90  54  29 SE9G20    30.04F
MARFA          MOSUNNY  N/A N/A N/A SW8G18    30.12F
MIDLAND AIRPK  SUNNY     91  61  36 S14G24    30.02S
MIDLAND INTL   MOSUNNY   90  62  39 S17G28    30.01F
ODESSA         CLOUDY    89  60  37 S13G21    30.02F
PECOS          SUNNY     96  58  28 E12       29.93F
PRESIDIO       FAIR      96  56  26 S8        29.95F
SEMINOLE       SUNNY     91  57  32 SE15G24   30.04F
SNYDER           N/A     87  66  49 SE14      30.04F
WINK           SUNNY     93  61  34 SE17G28   29.97F
$$
...OTHER STATIONS IN TEXAS...

CITY           SKY/WX    TMP DP  RH WIND       PRES   REMARKS
ABILENE        MOSUNNY   89  68  49 S16G26    30.04F
AMARILLO       SUNNY     94  56  27 S16G25    30.03F
AUSTIN         CLOUDY    84  77  79 SE13      30.05S
BROWNSVILLE    PTSUNNY   89  76  65 SE17G25   30.00F HX 100
CORPUS CHRISTI CLOUDY    86  76  71 SE21      30.03R THUNDER
DALLAS FTW     PTSUNNY   91  69  48 S15       30.02F
DEL RIO        MOSUNNY   93  68  43 SE20G26   29.95F
EL PASO        MOSUNNY   95  50  21 NW8       30.00F
HOUSTON INT    CLOUDY    87  72  60 S10G23    30.06S
LUBBOCK        MOSUNNY   90  59  35 S23       30.04F
SAN ANGELO     CLOUDY    84  65  52 SE13      30.03F
SAN ANTONIO    CLOUDY    84  72  67 S8        30.06S
WACO           PTSUNNY   89  72  56 S15G23    30.04F
WICHITA FALLS  NOT AVBL
$$
...OTHER LOCATIONS IN NEW MEXICO...

CITY           SKY/WX    TMP DP  RH WIND       PRES   REMARKS
ALAMAGORDO     MOSUNNY   90  54  29 SE3       30.03F
ALBUQUERQUE    CLOUDY    88  42  20 N8        30.13F
CANNON AFB     MOSUNNY   90  58  34 SE13      30.06F
CLOVIS         SUNNY     90  59  35 S10G16    30.07S
HOLLOMAN AFB   MOSUNNY   91  50  24 VRB3      30.01F
ROSWELL        SUNNY     93  56  28 SE7G20    30.01F
RUIDOSO          N/A     72  41  33 W17G25    30.28R
SANTA FE       CLOUDY    84  40  21 VRB5      30.19F
TRUTH OR CONSE MOSUNNY   91  46  21 CALM      30.06F
TUCUMCARI      SUNNY     99  45  15 S12G18    29.99F
$$

USA.gov is the U.S. government's official web portal to all federal, state and local government web resources and services.